Regional Weather Roundup
Issued by NWS Kansas City/Pleasant Hill, MO

Home | Current Version | Previous Version | Text Only | Print | Product List | Glossary On
Versions: 1 2 3 4 5 6 7 8 9 10 11 12 13 14 15 16 17 18 19 20 21 22 23 24 25 26 27
000
ASUS43 KEAX 241810
RWREAX

WEATHER ROUNDUP FOR EASTERN KANSAS AND NORTHWEST MISSOURI
NATIONAL WEATHER SERVICE KANSAS CITY/PLEASANT HILL MO
100 PM CDT THU MAY 24 2018

KSZ040-057-103>105-MOZ028-029-037-043-241900-
...KANSAS CITY METROPOLITAN AREA...

CITY           SKY/WX    TMP DP  RH WIND       PRES   REMARKS
K.C. INTL      PTSUNNY   83  67  58 S14       30.07F
6HR MIN TEMP:  67; 6HR MAX TEMP:  84;

K.C. DOWNTOWN  CLOUDY    85  67  54 VRB7G20   30.06F
6HR MIN TEMP:  70; 6HR MAX TEMP:  85;

LEES SUMMIT    CLOUDY    84  67  56 S12G20    30.08F
6HR MIN TEMP:  66; 6HR MAX TEMP:  84;

OLATHE - IXD   CLOUDY    81  69  67 SE14      30.08F
6HR MIN TEMP:  67; 6HR MAX TEMP:  81;

OLATHE - OJC   MOSUNNY   77  68  73 SE10      30.09S
6HR MIN TEMP:  64; 6HR MAX TEMP:  79;

LAWRENCE       MOSUNNY   84  70  62 SE12      30.06F

$$

MOZ001>008-011>017-020>025-030>033-038>040-044>046-053-054-241900-
...NORTHERN AND CENTRAL MISSOURI...

CITY           SKY/WX    TMP DP  RH WIND       PRES   REMARKS
ST. JOSEPH     MOSUNNY   85  69  58 SE15G23   30.05F
6HR MIN TEMP:  68; 6HR MAX TEMP:  87;

MOSBY          CLOUDY    82  63  51 SE9       30.07F
WARRENSBURG    MOSUNNY   82  64  54 SE9       30.09F
WHITEMAN AFB   PTSUNNY   83  67  58 S9        30.06F
6HR MIN TEMP:  66; 6HR MAX TEMP:  83;

CLINTON        CLOUDY    82  68  61 SE6       30.10F
SEDALIA        MOSUNNY   84  68  58 SE10      30.12F
6HR MIN TEMP:  69; 6HR MAX TEMP:  84;

WARSAW         NOT AVBL
CHILLICOTHE      N/A     84  66  54 S9        30.09F
6HR MIN TEMP:  66; 6HR MAX TEMP:  86;

KIRKSVILLE     MOSUNNY   86  69  56 S10       30.11F HX  90

$$

MOZ041-047>049-056>058-063>065-088>090-097-241900-
...EASTERN AND SOUTHERN MISSOURI...

CITY           SKY/WX    TMP DP  RH WIND       PRES   REMARKS
ST. LOUIS INTL PTSUNNY   85  62  46 S7        30.12F
6HR MIN TEMP:  70; 6HR MAX TEMP:  85;

SPIRIT OF STL  MOSUNNY   86  64  47 SE5       30.10F
COLUMBIA       SUNNY     83  69  62 S7        30.12F
JEFFERSON CITY CLOUDY    85  66  53 SE8       30.10F
ROLLA          MOSUNNY   83  65  54 S6        30.13F
OSAGE BEACH    MOSUNNY   82  69  64 SE7       30.12F
SPRINGFIELD    MOSUNNY   82  67  60 S6        30.11F
JOPLIN         SUNNY     81  70  69 VRB3      30.10F
WEST PLAINS    MOSUNNY   81  67  62 SE7       30.14F

$$

IAZ060-094-KSZ022-034>040-054-083-096-NEZ052-066-093-241900-
...KANSAS...SOUTHEAST NEBRASKA AND IOWA...

CITY           SKY/WX    TMP DP  RH WIND       PRES   REMARKS
TOPEKA         MOSUNNY   85  70  60 SE12      30.04F
6HR MIN TEMP:  69; 6HR MAX TEMP:  85;

MANHATTAN      SUNNY     88  66  48 S15G25    30.01F HX  90
EMPORIA        MOSUNNY   80  70  71 S14       30.06F
CHANUTE        CLOUDY    82  72  71 S8        30.08F
WICHITA        CLOUDY    74  67  78 CALM      30.06F
OMAHA          PTSUNNY   85  61  44 SE16      30.00F
LINCOLN        SUNNY     87  61  41 SE13      29.99F
FALLS CITY     MOSUNNY   86  68  54 S14G23    30.02F
LAMONI         SUNNY     82  67  60 S10G18    30.08F
DES MOINES     CLOUDY    86  64  47 S17       30.04F

$$





USA.gov is the U.S. government's official web portal to all federal, state and local government web resources and services.